www.pogodaiklimat.ru

Погода и климат >> Архив погоды >> Норвегия >> Маяк Krakenes


ПОГОДА на Маяке Krakenes

  • Прогноз погоды на Маяке Krakenes
  • Монитор погоды на Маяке Krakenes

АРХИВ ПОГОДЫ на Маяке Krakenes

Время (UTC), дата Ветер
(напр.,м/с)
 
Видим.   Явления Облачность Т
(С)
Тd
(С)
f
(%)
Тe
(С)
Тes
(С)
Комфортность P
(гПа)
Po
(гПа)
Тmin
(С)
Tmax
(С)
R
(мм)
R24
(мм)
S
(см)
07 16.02 В 7
{9}
н/о н/о +1.7 +1.6 99 -5 -5 1007.0 1002.1
08 16.02 В 7
{9}
н/о н/о +2.6 +2.5 99 -4 -4 1007.7 1002.8
09 16.02 В 7
{10}
н/о н/о +2.9 +2.8 99 -4 -4 1008.3 1003.4
10 16.02 В 6
{8}
н/о н/о +3.3 +2.9 97 -3 -3 1008.9 1004.0
11 16.02 В 6
{7}
н/о н/о +3.7 +3.1 96 -2 -2 1009.7 1004.8
12 16.02 В 3
{10}
н/о н/о +4.0 +3.9 99 0 0 1011.4 1006.5
13 16.02 СВ 6
{8}
н/о н/о +4.4 +3.1 91 -1 -1 1012.0 1007.1
14 16.02 СВ 5
{7}
н/о н/о +4.6 +3.0 89 -0 -0 1012.9 1008.0
15 16.02 СВ 6
{7}
н/о н/о +4.5 +3.0 90 -1 -1 1013.0 1008.1
16 16.02 СВ 8
{9}
н/о н/о +4.6 +1.5 80 -1 -1 1013.1 1008.2
17 16.02 СВ 6
{8}
н/о н/о +3.9 -0.5 73 -1 -1 1013.8 1008.9
18 16.02 СВ 6
{9}
н/о н/о +3.5 +2.9 96 -2 -2 1014.1 1009.1 +1.3 +4.7
19 16.02 В 9
{10}
н/о н/о +3.6 +2.1 90 -3 -3 1013.1 1008.2
20 16.02 В 6
{9}
н/о н/о +3.1 +2.2 94 -3 -3 1013.7 1008.7
21 16.02 СВ 5
{7}
н/о н/о +3.1 +2.4 95 -2 -2 1014.5 1009.5
22 16.02 В 4
{5}
н/о н/о +3.4 -0.2 77 -1 -1 1014.6 1009.6
23 16.02 В 4
{5}
н/о н/о +3.1 0.0 80 -2 -2 1014.5 1009.5
00 17.02 В 4
{10}
н/о н/о +3.7 -2.0 66 -0 -0 1014.3 1009.3
01 17.02 ЮВ 3
{6}
н/о н/о +3.8 +0.7 80 0 0 1014.5 1009.5
02 17.02 В 5
{6}
н/о н/о +3.3 +0.2 80 -2 -2 1014.0 1009.0
03 17.02 В 6
{6}
н/о н/о +3.3 -0.1 78 -2 -2 1013.4 1008.4
04 17.02 В 5
{7}
н/о н/о +3.9 -0.3 74 -1 -1 1012.5 1007.6
05 17.02 В 5
{6}
н/о н/о +4.2 +1.1 80 -1 -1 1011.8 1006.9
06 17.02 В 3
{7}
н/о н/о +4.9 +1.4 78 +2 +2 1011.5 1006.6 +2.8 +5.9
07 17.02 ЮВ 3
{7}
н/о н/о +6.5 +4.0 84 +3 +3 1011.3 1006.4
08 17.02 Ю 5
{13}
н/о н/о +7.4 +3.5 76 +4 +4 1010.9 1006.0
09 17.02 Ю 8
{15}
н/о н/о +7.8 +3.7 75 +3 +3 1010.2 1005.3
10 17.02 Ю 9
{17}
н/о н/о +8.5 +2.7 67 +4 +4 1009.7 1004.9
11 17.02 Ю 11
{18}
н/о н/о +8.6 +3.5 70 +4 +4 1008.5 1003.7
12 17.02 Ю 11
{20}
н/о н/о +8.8 +5.7 81 +4 +4 1007.9 1003.1
13 17.02 Ю 13
{20}
н/о н/о +8.9 +6.9 87 +3 +3 1006.0 1001.2
14 17.02 Ю 16
{22}
н/о н/о +9.3 +7.6 89 +3 +3 1005.7 1000.9
15 17.02 Ю 17
{23}
н/о н/о +10.0 +6.4 78 +4 +4 1004.5 999.7
16 17.02 Ю 19
{24}
н/о н/о +11.1 +5.9 70 +6 +6 1003.5 998.7
17 17.02 Ю 14
{24}
н/о н/о +10.2 +6.2 76 +5 +5 1003.7 998.9
18 17.02 Ю 14
{24}
н/о н/о +11.0 +4.5 64 +6 +6 1003.4 998.6 +4.8 +11.1
19 17.02 Ю 15
{27}
н/о н/о +11.6 +2.9 55 +7 +7 1002.3 997.5
20 17.02 Ю 16
{24}
н/о н/о +11.8 +1.5 49 +7 +7 1001.7 996.9
21 17.02 Ю 18
{26}
н/о н/о +10.8 +3.6 61 +6 +6 1002.0 997.2
22 17.02 Ю 22
{31}
н/о н/о +9.7 +4.1 68 +4 +4 1002.4 997.6
23 17.02 Ю 20
{31}
н/о н/о +8.5 +5.3 80 +2 +2 1001.6 996.8
00 18.02 Ю 19
{31}
н/о н/о +7.7 +7.0 95 +1 +1 1001.8 997.0
01 18.02 Ю 19
{27}
н/о н/о +7.4 +7.3 99 0 0 1001.7 996.9
02 18.02 Ю 18
{24}
н/о н/о +7.3 +7.0 98 0 0 1001.7 996.9
03 18.02 Ю 18
{23}
н/о н/о +7.3 +6.3 93 0 0 1001.0 996.2
04 18.02 Ю 18
{23}
н/о н/о +7.2 +6.3 94 -0 -0 1001.1 996.3
05 18.02 Ю 16
{26}
н/о н/о +7.6 +4.6 81 +1 +1 1000.1 995.3
06 18.02 Ю 18
{27}
н/о н/о +7.5 +5.0 84 +1 +1 999.7 994.9 +7.1 +12.0
07 18.02 Ю 19
{25}
н/о н/о +7.6 +5.1 84 +1 +1 998.8 994.0
08 18.02 Ю 18
{25}
н/о н/о +7.8 +3.7 75 +1 +1 998.9 994.1
09 18.02 Ю 19
{25}
н/о н/о +7.1 +6.4 95 -0 -0 998.1 993.3
10 18.02 Ю 17
{26}
н/о н/о +7.1 +6.2 94 -0 -0 998.2 993.4
11 18.02 Ю 17
{25}
н/о н/о +6.9 +6.2 95 -0 -0 997.8 993.0
12 18.02 Ю 18
{26}
н/о н/о +7.0 +6.4 96 -0 -0 996.6 991.8
13 18.02 Ю 21
{26}
н/о н/о +7.0 +6.3 95 -1 -1 995.6 990.8
14 18.02 Ю 20
{26}
н/о н/о +7.1 +6.2 94 -1 -1 995.0 990.2
15 18.02 Ю 20
{27}
н/о н/о +7.1 +5.9 92 -1 -1 994.2 989.4
16 18.02 Ю 20
{25}
н/о н/о +7.0 +5.6 91 -1 -1 994.6 989.8
17 18.02 Ю 20
{28}
н/о н/о +7.2 +4.2 81 -0 -0 994.2 989.4
18 18.02 Ю 22
{29}
н/о н/о +7.1 +4.1 81 -1 -1 993.0 988.2 +6.4 +7.9
19 18.02 Ю 19
{27}
н/о н/о +6.9 +3.7 80 -0 -0 993.3 988.5
20 18.02 Ю 20
{28}
н/о н/о +6.6 +4.8 88 -1 -1 992.2 987.4
21 18.02 Ю 22
{25}
н/о н/о +5.9 +4.2 89 -2 -2 992.3 987.5
22 18.02 Ю 19
{25}
н/о н/о +6.4 +3.4 81 -1 -1 991.7 986.9
23 18.02 Ю 17
{24}
н/о н/о +6.3 +3.6 83 -1 -1 991.6 986.8
00 19.02 Ю 13
{28}
н/о н/о +6.8 +1.9 71 +1 +1 990.9 986.1
01 19.02 Ю 11
{19}
н/о н/о +5.7 +2.2 78 -1 -1 989.9 985.1
02 19.02 Ю 11
{18}
н/о н/о +5.7 +3.1 83 -1 -1 989.4 984.6
03 19.02 Ю 10
{17}
н/о н/о +6.1 +3.6 84 0 0 988.7 983.9
04 19.02 Ю 5
{17}
н/о н/о +5.3 +3.6 89 +1 +1 988.5 983.7
05 19.02 В 5
{11}
н/о н/о +4.6 +4.5 99 -1 -1 987.7 982.9
06 19.02 В 5
{19}
н/о н/о +4.7 +4.6 99 -0 -0 988.4 983.6 +4.6 +7.2
07 19.02 С 3
{6}
н/о н/о +4.8 +4.7 99 +1 +1 990.3 985.5
08 19.02 З 10
{12}
н/о н/о +4.2 +4.1 99 -3 -3 992.2 987.4
09 19.02 З 13
{14}
н/о н/о +5.1 +1.2 76 -2 -2 992.8 988.0
10 19.02 ЮЗ 9
{14}
н/о н/о +4.1 +4.0 99 -3 -3 994.1 989.3
11 19.02 ЮЗ 10
{13}
н/о н/о +4.9 +2.8 86 -2 -2 994.2 989.4
12 19.02 ЮЗ 10
{14}
н/о н/о +4.3 +4.2 99 -3 -3 995.5 990.7
13 19.02 ЮЗ 11
{14}
н/о н/о +4.8 +4.7 99 -2 -2 996.0 991.2
14 19.02 ЮЗ 9
{12}
н/о н/о +4.9 +4.8 99 -2 -2 997.3 992.5
15 19.02 С 5
{11}
н/о н/о +5.0 +4.9 99 0 0 999.0 994.1
16 19.02 С 12
{18}
н/о н/о +5.0 +4.9 99 -2 -2 1000.5 995.6
17 19.02 С 14
{18}
н/о н/о +4.9 +2.9 87 -3 -3 1001.7 996.8
18 19.02 СВ 12
{18}
н/о н/о +4.7 +2.2 84 -2 -2 1003.2 998.3 +4.0 +5.3
19 19.02 С 11
{14}
н/о н/о +5.2 -0.2 68 -1 -1 1004.4 999.5
20 19.02
{15}
н/о н/о +4.9 -1.5 63 1005.2 1000.3
21 19.02 С 8
{12}
н/о н/о +5.1 -3.2 55 -0 -0 1006.2 1001.3
22 19.02 С 8
{11}
н/о н/о +4.8 -1.6 63 -1 -1 1006.6 1001.7
23 19.02 С 5
{8}
н/о н/о +5.0 -2.3 59 +1 +1 1007.4 1002.5
00 20.02
{15}
н/о н/о +4.7 +0.1 72 1008.2 1003.3
01 20.02 С 6
{9}
н/о н/о +4.6 +2.6 87 -1 -1 1008.6 1003.7
02 20.02 СВ 4
{7}
н/о н/о +4.7 -0.1 71 +1 +1 1008.6 1003.7
03 20.02 СВ 2
{5}
н/о н/о +4.5 -0.1 72 +2 +2 1008.6 1003.7
04 20.02 штиль 0
{4}
н/о н/о +4.4 -1.2 67 +4 +4 1009.0 1004.1
05 20.02 Ю 1
{3}
н/о н/о +4.5 -1.5 65 +4 +4 1009.1 1004.2
06 20.02 ЮВ 3
{9}
н/о н/о +4.5 -5.5 48 +2 +2 1009.3 1004.4 +4.3 +5.2
07 20.02 Ю 4
{4}
н/о н/о +4.4 -5.6 48 +1 +1 1009.5 1004.6
08 20.02 ЮВ 3
{5}
н/о н/о +4.7 -5.3 48 +2 +2 1009.8 1004.9
09 20.02 ЮВ 3
{5}
н/о н/о +4.6 -4.9 50 +2 +2 1010.0 1005.1
10 20.02 Ю 3
{7}
н/о н/о +4.7 -4.3 52 +2 +2 1010.4 1005.5
11 20.02 Ю 4
{8}
н/о н/о +4.7 -3.8 54 +1 +1 1010.4 1005.5
12 20.02 Ю 5
{8}
н/о н/о +4.7 -3.3 56 +1 +1 1010.1 1005.2
13 20.02 ЮВ 2
{7}
н/о н/о +4.9 -2.9 57 +3 +3 1009.8 1004.9
14 20.02 В 4
{6}
н/о н/о +4.5 -2.1 62 +1 +1 1009.4 1004.5
15 20.02 В 4
{8}
н/о н/о +4.7 -2.1 61 +1 +1 1008.8 1003.9
16 20.02 В 4
{9}
н/о н/о +3.1 +2.2 94 -2 -2 1008.1 1003.2
17 20.02 В 6
{7}
н/о н/о +3.0 +2.9 99 -3 -3 1007.0 1002.1
18 20.02 В 6
{9}
н/о н/о +3.2 +2.8 97 -3 -3 1005.9 1001.0 +3.0 +5.0
19 20.02 В 5
{10}
н/о н/о +4.2 +3.5 95 -1 -1 1005.3 1000.4
20 20.02 ЮВ 5
{13}
н/о н/о +4.9 +4.0 94 0 0 1004.5 999.6
21 20.02 Ю 7
{16}
н/о н/о +6.5 +4.5 87 +1 +1 1004.1 999.2
22 20.02 Ю 10
{18}
н/о н/о +7.4 +4.5 82 +2 +2 1002.9 998.1
23 20.02 Ю 12
{21}
н/о н/о +8.0 +5.0 81 +2 +2 1003.0 998.2
00 21.02 Ю 13
{21}
н/о н/о +8.3 +6.3 87 +2 +2 1003.1 998.3
01 21.02 Ю 13
{18}
н/о н/о +7.9 +6.8 93 +2 +2 1003.6 998.8
02 21.02 Ю 10
{16}
н/о н/о +7.8 +7.5 98 +2 +2 1005.0 1000.2
03 21.02 Ю 11
{13}
н/о н/о +7.6 +7.5 99 +2 +2 1005.4 1000.6
04 21.02 Ю 10
{14}
н/о н/о +7.7 +7.6 99 +2 +2 1005.9 1001.1
05 21.02 Ю 11
{14}
н/о н/о +7.0 +6.9 99 +1 +1 1006.5 1001.6
06 21.02 Ю 12
{18}
н/о н/о +6.6 +6.5 99 0 0 1006.9 1002.0 +3.2 +8.3
07 21.02 Ю 12
{15}
н/о н/о +6.5 +6.4 99 -0 -0 1008.1 1003.2
08 21.02 Ю 12
{14}
н/о н/о +6.3 +6.2 99 -0 -0 1009.2 1004.3
09 21.02 Ю 12
{14}
н/о н/о +6.3 +6.2 99 -0 -0 1010.2 1005.3
10 21.02 Ю 12
{14}
н/о н/о +6.6 +6.5 99 0 0 1011.8 1006.9
11 21.02 Ю 12
{14}
н/о н/о +6.4 +6.3 99 -0 -0 1013.0 1008.1
12 21.02 Ю 10
{15}
н/о н/о +6.4 +6.3 99 0 0 1014.1 1009.2
13 21.02 Ю 12
{13}
н/о н/о +6.4 +6.3 99 -0 -0 1015.2 1010.3
14 21.02 Ю 11
{14}
н/о н/о +6.5 +6.4 99 0 0 1016.2 1011.3
15 21.02 Ю 11
{14}
н/о н/о +7.0 +6.6 97 +1 +1 1017.3 1012.4
16 21.02 Ю 12
{14}
н/о н/о +6.6 +6.5 99 0 0 1018.0 1013.1
17 21.02 Ю 9
{14}
н/о н/о +7.1 +7.0 99 +1 +1 1019.1 1014.2
18 21.02 Ю 8
{14}
н/о н/о +7.5 +7.2 98 +2 +2 1019.9 1015.0 +6.1 +7.7
19 21.02 Ю 8
{12}
н/о н/о +7.7 +7.6 99 +3 +3 1020.4 1015.5
20 21.02 Ю 10
{15}
н/о н/о +8.5 +6.5 87 +3 +3 1020.9 1016.0
21 21.02 Ю 12
{16}
н/о н/о +8.9 +6.5 85 +4 +4 1020.8 1015.9
22 21.02 Ю 15
{18}
н/о н/о +8.8 +6.8 87 +3 +3 1021.1 1016.2
23 21.02 Ю 16
{21}
н/о н/о +8.7 +6.8 88 +3 +3 1021.9 1017.0
00 22.02 Ю 17
{21}
н/о н/о +8.7 +6.8 88 +2 +2 1022.6 1017.7
01 22.02 Ю 18
{21}
н/о н/о +8.7 +6.8 88 +2 +2 1023.0 1018.1
02 22.02 Ю 16
{23}
н/о н/о +9.0 +7.0 87 +3 +3 1023.7 1018.8
03 22.02 Ю 18
{22}
н/о н/о +8.7 +7.0 89 +2 +2 1024.1 1019.2
04 22.02 Ю 18
{21}
н/о н/о +8.7 +7.0 89 +2 +2 1024.5 1019.6
05 22.02 Ю 19
{22}
н/о н/о +8.5 +7.0 90 +2 +2 1024.2 1019.3
06 22.02 Ю 15
{23}
н/о н/о +9.4 +5.8 78 +4 +4 1025.4 1020.5 +7.5 +9.5
07 22.02 Ю 15
{21}
н/о н/о +10.0 +5.8 75 +5 +5 1025.6 1020.7
08 22.02 Ю 17
{23}
н/о н/о +10.1 +6.3 77 +5 +5 1024.8 1019.9
09 22.02 Ю 22
{27}
н/о н/о +9.8 +6.2 78 +4 +4 1024.0 1019.1
10 22.02 Ю 20
{27}
н/о н/о +9.6 +5.2 74 +4 +4 1025.4 1020.5
11 22.02 Ю 21
{27}
н/о н/о +8.9 +6.2 83 +2 +2 1024.8 1019.9
12 22.02 Ю 27
{32}
н/о н/о +8.8 +5.4 79 +2 +2 1024.6 1019.7
13 22.02 Ю 23
{33}
н/о н/о +8.1 +6.1 87 +1 +1 1026.4 1021.5
14 22.02 Ю 25
{32}
н/о н/о +8.0 +5.8 86 0 0 1026.2 1021.3
15 22.02 Ю 22
{29}
н/о н/о +8.0 +6.0 87 +1 +1 1027.7 1022.8
16 22.02 Ю 19
{28}
н/о н/о +7.9 +6.5 91 +1 +1 1028.8 1023.9
17 22.02 Ю 21
{26}
н/о н/о +8.0 +6.6 91 +1 +1 1028.0 1023.1
18 22.02 Ю 21
{33}
н/о н/о +7.6 +6.9 95 0 0 1028.6 1023.6 +7.6 +10.4
19 22.02 Ю 20
{27}
н/о н/о +7.5 +7.1 97 0 0 1029.5 1024.5
20 22.02 Ю 20
{25}
н/о н/о +7.5 +7.2 98 0 0 1029.6 1024.6
21 22.02 Ю 20
{26}
н/о н/о +7.7 +7.6 99 0 0 1029.0 1024.0
22 22.02 Ю 19
{25}
н/о н/о +7.5 +7.1 97 0 0 1029.9 1024.9
23 22.02 Ю 19
{25}
н/о н/о +7.8 +7.1 95 +1 +1 1029.5 1024.5
00 23.02 Ю 21
{27}
н/о н/о +8.3 +6.8 90 +1 +1 1028.5 1023.6
01 23.02 Ю 18
{24}
н/о н/о +8.7 +6.3 85 +2 +2 1028.7 1023.8
02 23.02 Ю 17
{23}
н/о н/о +9.9 +5.1 72 +4 +4 1028.1 1023.2
03 23.02 Ю 16
{24}
н/о н/о +11.7 +4.5 61 +7 +7 1026.7 1021.8
04 23.02 Ю 18 н/о н/о +11.5 +4.3 61 +7 +7 1027.0 1022.1
05 23.02 Ю 19
{24}
н/о н/о +11.0 +4.0 62 +6 +6 1026.3 1021.4

 

Местоположение метеостанции Маяк Krakenes (Норвегия): широта 62.03 долгота 4.99 высота над уровнем моря 75 м.

В архиве по умолчанию представлена погода на Маяке Krakenes за последнюю неделю. Архивные данные за месяц целиком и за предыдущие месяцы, начиная с января 2011 года, Вы можете получить, выбрав интересующий диапазон дат из раскрывающегося списка и нажав кнопку "Ввод!".


*Определитесь, кто Вы:
робот инопланетянин человек

Внимание! Время в таблицах - всемирное. Для получения местного времени необходимо прибавить поправку, которая равна 1 ч.

Смотрите также архив погоды в соседних городах и на ближайших метеорологических станциях:

Погода в Берген аэропорту (Норвегия) (31 км)
Погода в Фиске (Норвегия) (32 км)
Погода на Маяке Svinoy (Норвегия) (36 км)
Погода в Флоро аэропорту (Норвегия) (50 км)
Погода на Маяке Ytteroyane (Норвегия) (54 км)
Погода в Аэропорту Орста-Волда (Норвегия) (59 км)
Погода в Сандан аэропорту (Норвегия) (62 км)
Погода во Флурё (Норвегия) (79 км)
Погода в Олесунне (Норвегия) (80 км)
Погода во Флурё аэропорту (Норвегия) (82 км)

Пояснения к столбцам:

Ветер - указаны скорость ветра в м/с - средняя за 10 мин, порывы в срок и между сроками (в фигурных скобках) и направление, откуда дует ветер: С - северный, СВ - северо-восточный, В - восточный, ЮВ - юго-восточный, Ю - южный, ЮЗ - юго-западный, З - западный, СЗ - северо-западный.
Видимость - горизонтальная дальность видимости в метрах или километрах. При видимости от 1 до 10 км при отсутствии осадков обычно наблюдается дымка, при ухудшении видимости до 1 км и менее - туман. В сухую погоду видимость может ухудшаться дымом, пылью или мглою.
Явления - указаны атмосферные явления, наблюдавшиеся в срок или в последний час перед сроком; фигурными скобками обозначены явления, наблюдавшиеся между сроками (за 1-3 часа до срока); квадратными скобками обозначены град или гололедные отложения с указанием их диаметра в мм.
Облачность - указаны через наклонную черту общая и нижняя облачность в баллах и высота нижней границы облаков в метрах; квадратными скобками обозначены формы облаков: Ci - перистые, Cs - перисто-слоистые, Cc - перисто-кучевые, Ac - высококучевые, As - высокослоистые, Sc - слоисто-кучевые, Ns - слоисто-дождевые, Cu - кучевые, Cb - кучево-дождевые. Подробнее классификацию облаков см. в Атласе облаков (PDF).
T - Температура воздуха - температура, измеренная на высоте 2 м над землей.
Td - Температура точки росы - температура, при понижении до которой содержащийся в воздухе водяной пар достигнет насыщения.
f - Относительная влажность воздуха - влажноcть воздуха, измеренная на высоте 2 м над землей.
Te - Эффективная температура - температура, которую ощущает одетый по сезону человек в тени. Характеристика душности погоды. При расчете учитывается влияние влажности воздуха и скорости ветра на теплоощущения человека.
Tes - Эффективная температура на солнце - температура, которую ощущает человек, с поправкой на солнечный нагрев. Характеристика знойности погоды. Зависит от высоты солнца над горизонтом, облачности и скорости ветра. Ночью, в пасмурную погоду, а также при ветре 12 м/с и более поправка равна нулю.
P - Атмосферное давление - приведенное к уровню моря атмосферное давление.
Po - Атмосферное давление - измеренное на уровне метеостанции атмосферное давление.
Tmin - Минимальная температура - минимум температуры воздуха на высоте 2 м над землей.
Tmax - Максимальная температура - максимум температуры воздуха на высоте 2 м над землей.
R - Количество осадков - Количество выпавших осадков за период времени, мм. При наведении курсора мыши на число - период времени, за который выпало указанное количество осадков.
R24 - Количество осадков - Количество выпавших осадков за 24 часа, мм.
S - Снежный покров - Высота снежного покрова, см. При наведении курсора мыши на число - состояние снежного покрова и степень покрытия местности в баллах.